SCP
-0 -0 -0 0 0 0 0 0 0 0 0 0 0 0 0 0 0 0 0 0 0 0 0 0 0 0 0 0 0 0 0 0 0 0 0 0 0 0 0 0 0 0 0 0
-0 0 0 0 0 0 0 0 0 0 0 0 0 0 0 0 0 0 0 0 0 0 0 0 0 0 0 0 0 0 0 0 0 0 0 0 0 0 0 0 0 0 0 0
0 0 0 0 0 0 0 0 0 0 0 0 0 0 0 0 -0 -0 0 0 0 0 0 0 0 0 0 0 0 0 0 0 0 0 0 0 0 0 0 0 0 0 0 0
-0 0 0 0 0 0 0 0 0 0 0 0 0 0 0 0 0 0 0 0 0 0 0 0 0 0 0 0 0 0 0 0 0 0 0 0 0 0 0 0 0 0 0 0
-0 -0 0 -0 -0 0 0 0 0 0 0 0 0 0 0 0 0 0 0 0 0 0 0 0 0 0 0 0 0 0 0 0 0 0 0 0 0 0 0 0 0 0 0 0
-0 -0 0 -0 0 0 0 0 0 0 0 0 0 0 0 0 0 0 0 0 0 0 0 0 0 0 0 0 0 0 0 0 0 0 0 0 0 0 0 0 0 0 0 0
-0 0 -0 -0 0 0 0 0 0 0 0 0 0 0 0 0 0 0 0 0 0 0 0 -0 0 0 0 -0 0 0 0 0 0 0 0 0 0 0 0 0 0 0 0 0
-0 -0 -0 -0 0 0 0 0 0 0 0 0 0 0 0 0 0 0 0 0 0 0 0 0 0 0 0 0 0 0 0 0 0 0 0 0 0 0 0 0 0 0 0 0
-0 -0 -0 -0 0 0 0 0 0 0 0 0 0 0 0 0 0 0 -0 -0 0 0 0 0 0 0 0 0 0 0 0 0 0 0 0 0 0 0 0 0 0 0 0 0
-0 -0 -0 -0 0 0 0 0 0 0 0 0 0 0 0 0 0 0 0 0 0 -0 -0 0 0 0 0 0 0 0 0 0 0 0 0 0 0 0 0 0 0 0 0 0
-0 -0 -0 -0 0 0 0 0 0 0 0 0 0 0 0 0 0 0 0 0 0 0 0 0 0 0 0 0 0 0 0 0 0 0 0 0 0 0 0 0 0 0 0 0
-0 -0 -0 -0 -0 0 0 0 0 0 0 0 0 0 0 0 0 0 0 0 0 0 0 0 0 0 0 0 0 0 0 0 0 0 0 0 0 0 0 0 0 0 0 0
-0 -0 -0 -0 0 0 0 0 0 0 0 0 0 0 0 0 0 0 0 0 0 0 0 0 0 0 0 0 0 0 0 0 0 0 0 0 0 0 0 0 0 0 0 0
-0 -0 -0 -0 0 0 0 0 0 0 0 0 0 0 0 0 0 0 0 0 0 0 0 0 0 0 0 0 0 0 0 0 0 0 0 0 0 0 0 0 0 0 0 0
-0 -0 -0 -0 0 0 0 0 0 0 0 0 0 0 0 0 0 0 0 0 0 0 0 0 0 0 0 0 0 0 0 0 0 0 0 0 0 0 0 0 0 0 0 0
-0 -0 -0 -0 0 0 0 0 0 0 0 0 0 0 0 0 0 0 0 0 0 0 0 0 0 0 0 0 0 0 0 0 0 0 0 0 0 0 0 0 0 0 0 0
-0 -0 -0 -0 0 0 0 0 0 0 0 0 0 0 0 0 0 0 0 0 0 0 0 0 0 0 0 0 0 0 0 0 0 0 0 0 0 0 0 0 0 0 0 0
-0 -0 -0 0 0 0 0 0 0 0 0 0 0 0 0 0 0 0 0 0 0 0 0 0 0 0 0 0 0 0 0 0 0 0 0 0 0 0 0 0 0 0 0 0
-0 -0 0 0 0 0 0 0 0 0 0 0 0 0 0 0 0 0 0 0 0 0 0 0 0 0 0 0 0 0 0 0 0 0 0 0 0 0 0 0 0 0 0 0
0 0 0 0 0 0 0 0 0 0 0 0 0 0 0 0 0 0 0 0 0 0 0 0 0 0 0 0 0 0 0 0 0 0 0 0 0 0 0 0 0 0 0 0
0 0 0 0 0 0 0 0 0 0 0 0 0 0 0 0 0 0 0 0 0 0 0 0 0 0 0 0 0 0 0 0 0 0 0 0 0 0 0 0 0 0 0 0
0 0 0 0 0 0 0 0 0 0 0 0 0 0 0 0 0 0 0 0 0 0 0 0 0 0 0 0 0 0 0 0 0 0 0 0 0 0 0 0 0 0 0 0
0 0 0 0 0 0 0 0 0 0 0 0 0 0 0 0 0 0 0 0 0 0 0 0 0 0 0 0 0 0 0 0 0 0 0 0 0 0 0 0 0 0 0 0
0 0 0 0 0 0 0 0 0 0 0 0 0 0 0 0 0 0 0 0 0 0 0 0 0 0 0 0 0 0 0 0 0 0 0 0 0 0 0 0 0 0 0 0
0 0 0 0 0 0 0 0 0 0 0 0 0 0 0 0 0 0 0 0 0 0 0 0 0 0 0 0 0 0 0 0 0 0 0 0 0 0 0 0 0 0 0 0
0 0 0 0 0 0 0 0 0 0 0 0 0 0 0 0 0 0 0 0 0 0 0 0 0 0 0 0 0 0 0 0 0 0 0 0 0 0 0 0 0 0 0 0
0 0 0 0 0 0 0 0 0 0 0 0 0 0 0 0 0 0 0 0 0 0 0 0 0 0 0 0 0 0 0 0 0 0 0 0 0 0 0 0 0 0 0 0
Wind_Speed_500mb
42 33 28 24 15 2 7 6 4 11 43 9 2 7 10 5 9 3 6 5 3 2 12 8 9 12 11 15 19 11 7 5 8 2 1 4 2 7 10 6 9 2 3 3
45 37 30 24 15 2 5 6 8 30 13 8 7 5 7 7 9 8 6 11 10 6 6 7 10 8 7 28 22 20 16 8 6 9 10 7 2 5 6 12 6 10 5 3
47 41 32 25 17 3 6 6 6 7 8 3 6 11 8 11 11 10 17 12 15 8 10 11 6 8 8 27 21 8 21 7 4 1 2 2 4 9 12 2 6 13 10 12
48 44 34 29 19 4 7 6 4 7 10 10 6 6 9 15 10 13 14 4 12 2 8 6 11 12 6 17 16 10 4 5 3 8 9 6 2 1 12 9 1 9 4 18
47 47 38 29 22 6 7 2 2 5 2 6 13 1 10 13 12 8 10 9 4 7 12 15 27 8 11 12 15 14 3 2 10 6 3 10 7 5 12 8 9 5 10 10
45 45 42 31 22 10 3 3 4 2 2 7 12 10 11 14 7 12 16 8 6 8 25 49 41 31 24 8 22 14 4 7 1 5 10 5 3 2 2 4 4 10 10 9
42 43 43 36 25 17 10 4 3 4 5 7 10 3 12 23 18 10 3 9 7 15 36 3 17 12 4 12 9 4 19 10 7 7 1 9 4 1 13 3 6 8 8 26
39 41 41 37 28 21 15 4 2 3 3 5 6 7 9 10 11 7 9 27 22 37 30 7 4 7 8 9 13 10 6 11 7 9 13 4 6 9 10 3 4 11 20 25
37 38 38 36 31 22 14 2 3 4 6 6 2 1 1 6 10 7 5 32 18 14 4 2 6 6 5 7 7 9 13 5 9 8 7 10 2 5 7 5 6 22 27 32
34 35 36 35 30 23 14 1 3 6 6 6 4 2 1 3 2 4 3 9 8 10 8 13 5 7 5 3 6 9 10 6 10 6 4 3 2 2 4 5 5 25 30 28
32 31 33 33 29 22 14 4 2 4 9 20 14 9 6 2 2 4 6 12 6 6 1 15 5 6 1 5 3 4 3 8 5 4 4 7 3 7 7 6 17 24 23 21
29 29 29 31 29 22 14 7 11 13 15 16 20 29 29 26 20 3 3 6 1 8 5 5 4 5 5 7 2 3 3 3 2 5 4 3 1 3 5 21 31 22 26 24
28 27 26 27 28 24 17 11 12 16 15 26 27 20 18 31 36 26 11 7 8 8 7 8 4 7 5 7 7 7 3 5 3 9 2 11 12 13 20 25 27 27 22 24
27 26 25 25 25 24 19 15 12 8 9 8 10 8 9 12 23 33 40 15 4 4 6 6 3 1 6 3 2 3 4 13 9 4 5 6 10 15 24 28 29 28 25 18
28 27 26 25 23 20 18 14 10 8 4 7 21 34 19 19 27 30 36 42 30 9 3 1 3 3 7 4 1 6 16 12 9 7 29 11 27 33 31 31 26 21 15 16
28 27 26 24 22 17 11 4 9 9 3 6 7 11 9 9 17 23 35 37 30 14 6 4 4 4 3 6 7 6 16 17 9 2 27 11 36 33 30 25 20 18 16 14
28 26 25 22 20 15 9 5 6 10 10 5 11 10 5 3 12 10 16 31 14 10 6 4 4 6 8 4 8 3 11 17 17 19 39 27 30 23 29 26 25 21 16 10
27 24 21 17 13 12 16 20 13 6 7 6 6 8 8 3 6 8 13 13 11 6 6 4 3 5 2 8 10 9 14 19 27 37 18 29 39 39 34 26 21 15 8 2
24 18 13 7 5 7 9 14 13 12 10 5 5 5 1 6 3 7 8 9 5 4 5 6 7 5 9 7 12 24 32 22 45 32 37 42 41 36 29 21 14 6 1 6
17 8 3 5 6 6 6 8 6 8 10 11 7 5 5 4 1 4 8 2 4 6 4 9 7 6 9 15 14 26 26 35 51 51 35 36 32 29 23 15 7 4 7 9
9 6 1 3 4 5 6 5 6 5 6 10 10 14 7 5 4 4 2 5 5 6 7 6 6 6 7 15 29 42 30 45 35 29 34 25 24 23 16 9 3 5 4 4
23 15 14 4 4 3 4 4 2 7 5 7 5 5 12 8 7 6 5 4 5 7 14 7 5 4 11 24 33 38 47 36 34 31 28 26 20 14 7 5 6 5 7 8
11 6 5 5 2 3 8 9 5 4 3 1 6 6 6 7 8 3 5 10 8 15 7 5 4 10 24 36 45 46 39 36 33 30 23 18 11 7 7 7 8 10 8 3
5 6 9 5 5 5 3 2 4 8 7 16 17 9 5 5 7 3 7 5 8 8 9 9 6 29 39 45 47 48 41 31 26 21 15 9 6 5 6 7 7 7 7 5
3 1 6 6 5 8 7 8 9 9 11 21 11 9 6 5 5 5 4 8 7 8 9 4 12 45 53 53 47 41 34 27 21 15 11 9 7 6 7 8 12 10 7 4
4 6 6 8 5 3 6 6 15 20 30 17 7 5 5 10 5 9 10 8 7 7 5 9 34 58 61 54 45 34 26 21 16 14 12 9 8 9 13 15 15 12 9 14
5 8 12 14 14 12 8 18 16 35 15 5 6 6 6 1 6 9 5 6 4 8 14 24 51 69 64 51 38 30 22 17 17 16 13 12 13 15 17 16 15 16 20 21
Wind_Direction_500mb
3 358 352 348 345 303 178 162 163 159 154 157 144 181 200 178 176 152 106 127 98 338 315 255 216 227 354 154 121 167 196 212 252 231 85 1 85 149 171 209 177 67 304 165
6 0 355 351 346 243 173 134 99 156 173 179 180 214 216 218 207 180 160 188 193 193 250 288 233 197 233 194 168 169 175 237 240 151 147 110 197 132 123 109 137 175 223 126
7 4 358 353 346 265 188 174 130 168 239 237 192 175 176 218 236 224 196 185 169 159 231 239 279 239 208 185 189 210 163 214 178 88 10 60 219 149 156 287 179 156 227 165
7 7 3 356 353 309 208 210 197 167 185 218 187 159 172 211 235 220 207 246 178 159 279 244 224 225 239 170 201 144 210 213 96 287 262 201 51 105 179 209 49 238 43 199
5 6 6 3 356 329 216 253 233 180 170 164 181 179 189 210 222 206 210 257 281 191 234 256 289 242 221 183 175 188 151 352 58 280 14 134 118 103 113 118 142 94 149 175
3 6 6 6 6 10 261 263 250 224 153 152 186 205 207 227 222 235 241 238 243 255 295 318 286 250 274 227 169 172 134 127 163 324 18 346 264 335 320 103 182 155 179 158
0 3 6 6 5 7 0 261 278 242 171 216 210 207 216 233 226 277 185 329 357 309 290 271 57 58 191 160 69 167 125 155 199 252 221 215 67 280 224 222 176 178 136 154
357 360 4 5 1 359 346 245 289 303 241 249 226 216 241 234 239 244 300 282 259 224 304 12 350 215 213 56 45 162 130 144 140 198 205 278 193 183 152 195 134 173 153 144
353 355 359 4 1 359 352 171 238 300 300 213 346 277 288 171 208 193 284 278 269 150 132 135 271 223 318 165 125 73 113 64 218 173 173 195 99 129 197 170 256 166 163 158
346 350 352 360 2 359 1 207 296 310 289 275 200 183 348 116 276 146 177 336 338 10 26 310 351 332 305 269 161 153 136 106 199 174 156 163 128 136 196 221 27 156 157 157
340 345 347 351 360 358 353 262 332 340 292 279 259 251 275 319 58 94 6 308 297 61 264 303 179 256 42 320 341 338 200 159 154 150 148 197 145 161 233 98 122 140 141 151
333 338 341 342 349 354 350 276 273 299 279 269 274 270 258 259 242 312 210 252 194 198 130 225 197 180 202 184 169 90 261 313 189 223 77 314 285 304 195 149 141 144 143 151
326 329 332 334 336 341 337 314 285 293 292 291 273 275 263 230 231 243 230 227 219 199 158 196 115 204 157 222 193 124 146 241 121 187 122 84 124 138 135 137 138 143 155 166
318 320 322 323 326 328 326 313 280 274 283 290 280 282 256 249 227 221 226 215 210 204 193 184 124 134 208 205 110 88 121 165 145 90 175 155 180 161 150 144 150 156 161 170
311 312 313 313 315 316 313 305 239 217 258 288 290 298 277 246 234 232 232 230 233 265 262 112 184 156 156 75 50 213 187 172 198 237 189 167 181 169 165 162 164 164 164 162
308 306 305 305 306 304 304 271 220 205 318 292 292 293 280 251 238 231 225 220 216 237 201 172 163 196 225 193 213 249 197 198 172 114 159 150 154 164 174 173 166 157 149 139
309 304 299 298 292 274 233 222 164 211 261 277 294 293 265 265 158 135 165 181 188 188 165 193 156 159 186 208 224 236 207 212 190 159 145 125 154 161 166 164 153 148 145 151
314 306 298 294 280 238 227 230 231 233 245 247 272 273 307 172 192 155 160 162 163 151 143 138 189 146 213 243 228 200 185 166 155 156 169 157 155 149 150 151 148 149 149 158
320 309 295 268 204 190 215 197 207 228 235 265 230 269 301 344 179 146 144 156 150 183 201 184 174 170 224 222 210 187 169 167 155 140 135 138 143 147 152 158 157 157 217 300
331 312 198 192 177 185 205 224 223 207 218 225 250 235 268 325 209 162 143 140 132 190 154 137 223 235 257 247 224 183 168 159 149 128 130 143 145 154 154 160 182 244 294 304
4 355 235 241 220 214 204 216 219 180 234 211 239 223 271 306 251 199 233 150 149 211 157 221 194 241 216 199 170 169 165 155 154 155 148 149 156 159 165 178 236 285 272 198
336 311 297 257 192 186 217 219 222 222 255 202 220 254 221 244 229 222 171 183 183 223 145 203 227 220 157 157 159 158 153 150 144 148 147 149 154 160 176 225 241 221 226 237
332 350 334 360 161 120 213 199 196 245 245 287 347 287 230 226 208 195 190 191 191 133 188 218 239 147 155 154 151 150 151 148 143 141 147 151 164 197 222 229 234 233 236 242
329 10 322 216 188 244 231 294 346 332 314 326 318 264 234 200 195 187 205 119 154 182 197 210 174 173 162 157 153 150 147 146 147 154 160 169 184 205 226 219 213 182 151 170
295 246 237 234 311 280 295 309 321 335 316 337 293 253 231 184 231 213 131 173 211 209 195 193 168 167 163 159 157 156 157 162 165 166 169 174 190 213 151 130 127 152 147 151
244 235 261 247 274 310 333 349 330 348 330 318 231 258 230 223 207 185 207 172 183 182 203 172 163 165 162 161 162 165 167 170 174 178 179 189 195 179 157 155 160 157 163 133
248 247 252 268 274 265 282 323 323 338 335 325 289 239 239 24 207 190 200 201 182 180 170 165 168 164 166 165 166 170 173 179 181 182 186 186 182 171 166 169 165 154 144 139
Wind_Speed_850mb
42 33 28 24 15 2 7 6 4 11 43 9 2 7 10 5 9 3 6 5 3 2 12 8 9 12 11 15 19 11 7 5 8 2 1 4 2 7 10 6 9 2 3 3
45 37 30 24 15 2 5 6 8 30 13 8 7 5 7 7 9 8 6 11 10 6 6 7 10 8 7 28 22 20 16 8 6 9 10 7 2 5 6 12 6 10 5 3
47 41 32 25 17 3 6 6 6 7 8 3 6 11 8 11 11 10 17 12 15 8 10 11 6 8 8 27 21 8 21 7 4 1 2 2 4 9 12 2 6 13 10 12
48 44 34 29 19 4 7 6 4 7 10 10 6 6 9 15 10 13 14 4 12 2 8 6 11 12 6 17 16 10 4 5 3 8 9 6 2 1 12 9 1 9 4 18
47 47 38 29 22 6 7 2 2 5 2 6 13 1 10 13 12 8 10 9 4 7 12 15 27 8 11 12 15 14 3 2 10 6 3 10 7 5 12 8 9 5 10 10
45 45 42 31 22 10 3 3 4 2 2 7 12 10 11 14 7 12 16 8 6 8 25 49 41 31 24 8 22 14 4 7 1 5 10 5 3 2 2 4 4 10 10 9
42 43 43 36 25 17 10 4 3 4 5 7 10 3 12 23 18 10 3 9 7 15 36 3 17 12 4 12 9 4 19 10 7 7 1 9 4 1 13 3 6 8 8 26
39 41 41 37 28 21 15 4 2 3 3 5 6 7 9 10 11 7 9 27 22 37 30 7 4 7 8 9 13 10 6 11 7 9 13 4 6 9 10 3 4 11 20 25
37 38 38 36 31 22 14 2 3 4 6 6 2 1 1 6 10 7 5 32 18 14 4 2 6 6 5 7 7 9 13 5 9 8 7 10 2 5 7 5 6 22 27 32
34 35 36 35 30 23 14 1 3 6 6 6 4 2 1 3 2 4 3 9 8 10 8 13 5 7 5 3 6 9 10 6 10 6 4 3 2 2 4 5 5 25 30 28
32 31 33 33 29 22 14 4 2 4 9 20 14 9 6 2 2 4 6 12 6 6 1 15 5 6 1 5 3 4 3 8 5 4 4 7 3 7 7 6 17 24 23 21
29 29 29 31 29 22 14 7 11 13 15 16 20 29 29 26 20 3 3 6 1 8 5 5 4 5 5 7 2 3 3 3 2 5 4 3 1 3 5 21 31 22 26 24
28 27 26 27 28 24 17 11 12 16 15 26 27 20 18 31 36 26 11 7 8 8 7 8 4 7 5 7 7 7 3 5 3 9 2 11 12 13 20 25 27 27 22 24
27 26 25 25 25 24 19 15 12 8 9 8 10 8 9 12 23 33 40 15 4 4 6 6 3 1 6 3 2 3 4 13 9 4 5 6 10 15 24 28 29 28 25 18
28 27 26 25 23 20 18 14 10 8 4 7 21 34 19 19 27 30 36 42 30 9 3 1 3 3 7 4 1 6 16 12 9 7 29 11 27 33 31 31 26 21 15 16
28 27 26 24 22 17 11 4 9 9 3 6 7 11 9 9 17 23 35 37 30 14 6 4 4 4 3 6 7 6 16 17 9 2 27 11 36 33 30 25 20 18 16 14
28 26 25 22 20 15 9 5 6 10 10 5 11 10 5 3 12 10 16 31 14 10 6 4 4 6 8 4 8 3 11 17 17 19 39 27 30 23 29 26 25 21 16 10
27 24 21 17 13 12 16 20 13 6 7 6 6 8 8 3 6 8 13 13 11 6 6 4 3 5 2 8 10 9 14 19 27 37 18 29 39 39 34 26 21 15 8 2
24 18 13 7 5 7 9 14 13 12 10 5 5 5 1 6 3 7 8 9 5 4 5 6 7 5 9 7 12 24 32 22 45 32 37 42 41 36 29 21 14 6 1 6
17 8 3 5 6 6 6 8 6 8 10 11 7 5 5 4 1 4 8 2 4 6 4 9 7 6 9 15 14 26 26 35 51 51 35 36 32 29 23 15 7 4 7 9
9 6 1 3 4 5 6 5 6 5 6 10 10 14 7 5 4 4 2 5 5 6 7 6 6 6 7 15 29 42 30 45 35 29 34 25 24 23 16 9 3 5 4 4
23 15 14 4 4 3 4 4 2 7 5 7 5 5 12 8 7 6 5 4 5 7 14 7 5 4 11 24 33 38 47 36 34 31 28 26 20 14 7 5 6 5 7 8
11 6 5 5 2 3 8 9 5 4 3 1 6 6 6 7 8 3 5 10 8 15 7 5 4 10 24 36 45 46 39 36 33 30 23 18 11 7 7 7 8 10 8 3
5 6 9 5 5 5 3 2 4 8 7 16 17 9 5 5 7 3 7 5 8 8 9 9 6 29 39 45 47 48 41 31 26 21 15 9 6 5 6 7 7 7 7 5
3 1 6 6 5 8 7 8 9 9 11 21 11 9 6 5 5 5 4 8 7 8 9 4 12 45 53 53 47 41 34 27 21 15 11 9 7 6 7 8 12 10 7 4
4 6 6 8 5 3 6 6 15 20 30 17 7 5 5 10 5 9 10 8 7 7 5 9 34 58 61 54 45 34 26 21 16 14 12 9 8 9 13 15 15 12 9 14
5 8 12 14 14 12 8 18 16 35 15 5 6 6 6 1 6 9 5 6 4 8 14 24 51 69 64 51 38 30 22 17 17 16 13 12 13 15 17 16 15 16 20 21
Wind_Direction_850mb
3 358 352 348 345 303 178 162 163 159 154 157 144 181 200 178 176 152 106 127 98 338 315 255 216 227 354 154 121 167 196 212 252 231 85 1 85 149 171 209 177 67 304 165
6 0 355 351 346 243 173 134 99 156 173 179 180 214 216 218 207 180 160 188 193 193 250 288 233 197 233 194 168 169 175 237 240 151 147 110 197 132 123 109 137 175 223 126
7 4 358 353 346 265 188 174 130 168 239 237 192 175 176 218 236 224 196 185 169 159 231 239 279 239 208 185 189 210 163 214 178 88 10 60 219 149 156 287 179 156 227 165
7 7 3 356 353 309 208 210 197 167 185 218 187 159 172 211 235 220 207 246 178 159 279 244 224 225 239 170 201 144 210 213 96 287 262 201 51 105 179 209 49 238 43 199
5 6 6 3 356 329 216 253 233 180 170 164 181 179 189 210 222 206 210 257 281 191 234 256 289 242 221 183 175 188 151 352 58 280 14 134 118 103 113 118 142 94 149 175
3 6 6 6 6 10 261 263 250 224 153 152 186 205 207 227 222 235 241 238 243 255 295 318 286 250 274 227 169 172 134 127 163 324 18 346 264 335 320 103 182 155 179 158
0 3 6 6 5 7 0 261 278 242 171 216 210 207 216 233 226 277 185 329 357 309 290 271 57 58 191 160 69 167 125 155 199 252 221 215 67 280 224 222 176 178 136 154
357 360 4 5 1 359 346 245 289 303 241 249 226 216 241 234 239 244 300 282 259 224 304 12 350 215 213 56 45 162 130 144 140 198 205 278 193 183 152 195 134 173 153 144
353 355 359 4 1 359 352 171 238 300 300 213 346 277 288 171 208 193 284 278 269 150 132 135 271 223 318 165 125 73 113 64 218 173 173 195 99 129 197 170 256 166 163 158
346 350 352 360 2 359 1 207 296 310 289 275 200 183 348 116 276 146 177 336 338 10 26 310 351 332 305 269 161 153 136 106 199 174 156 163 128 136 196 221 27 156 157 157
340 345 347 351 360 358 353 262 332 340 292 279 259 251 275 319 58 94 6 308 297 61 264 303 179 256 42 320 341 338 200 159 154 150 148 197 145 161 233 98 122 140 141 151
333 338 341 342 349 354 350 276 273 299 279 269 274 270 258 259 242 312 210 252 194 198 130 225 197 180 202 184 169 90 261 313 189 223 77 314 285 304 195 149 141 144 143 151
326 329 332 334 336 341 337 314 285 293 292 291 273 275 263 230 231 243 230 227 219 199 158 196 115 204 157 222 193 124 146 241 121 187 122 84 124 138 135 137 138 143 155 166
318 320 322 323 326 328 326 313 280 274 283 290 280 282 256 249 227 221 226 215 210 204 193 184 124 134 208 205 110 88 121 165 145 90 175 155 180 161 150 144 150 156 161 170
311 312 313 313 315 316 313 305 239 217 258 288 290 298 277 246 234 232 232 230 233 265 262 112 184 156 156 75 50 213 187 172 198 237 189 167 181 169 165 162 164 164 164 162
308 306 305 305 306 304 304 271 220 205 318 292 292 293 280 251 238 231 225 220 216 237 201 172 163 196 225 193 213 249 197 198 172 114 159 150 154 164 174 173 166 157 149 139
309 304 299 298 292 274 233 222 164 211 261 277 294 293 265 265 158 135 165 181 188 188 165 193 156 159 186 208 224 236 207 212 190 159 145 125 154 161 166 164 153 148 145 151
314 306 298 294 280 238 227 230 231 233 245 247 272 273 307 172 192 155 160 162 163 151 143 138 189 146 213 243 228 200 185 166 155 156 169 157 155 149 150 151 148 149 149 158
320 309 295 268 204 190 215 197 207 228 235 265 230 269 301 344 179 146 144 156 150 183 201 184 174 170 224 222 210 187 169 167 155 140 135 138 143 147 152 158 157 157 217 300
331 312 198 192 177 185 205 224 223 207 218 225 250 235 268 325 209 162 143 140 132 190 154 137 223 235 257 247 224 183 168 159 149 128 130 143 145 154 154 160 182 244 294 304
4 355 235 241 220 214 204 216 219 180 234 211 239 223 271 306 251 199 233 150 149 211 157 221 194 241 216 199 170 169 165 155 154 155 148 149 156 159 165 178 236 285 272 198
336 311 297 257 192 186 217 219 222 222 255 202 220 254 221 244 229 222 171 183 183 223 145 203 227 220 157 157 159 158 153 150 144 148 147 149 154 160 176 225 241 221 226 237
332 350 334 360 161 120 213 199 196 245 245 287 347 287 230 226 208 195 190 191 191 133 188 218 239 147 155 154 151 150 151 148 143 141 147 151 164 197 222 229 234 233 236 242
329 10 322 216 188 244 231 294 346 332 314 326 318 264 234 200 195 187 205 119 154 182 197 210 174 173 162 157 153 150 147 146 147 154 160 169 184 205 226 219 213 182 151 170
295 246 237 234 311 280 295 309 321 335 316 337 293 253 231 184 231 213 131 173 211 209 195 193 168 167 163 159 157 156 157 162 165 166 169 174 190 213 151 130 127 152 147 151
244 235 261 247 274 310 333 349 330 348 330 318 231 258 230 223 207 185 207 172 183 182 203 172 163 165 162 161 162 165 167 170 174 178 179 189 195 179 157 155 160 157 163 133
248 247 252 268 274 265 282 323 323 338 335 325 289 239 239 24 207 190 200 201 182 180 170 165 168 164 166 165 166 170 173 179 181 182 186 186 182 171 166 169 165 154 144 139